Location: Unspecified
(0.0000°N, 0.0000°E)
Time: 15:22:45
(UTC+00:00)

STARLINK-32020 - Visible Passes

Search period start: 19 September 2024 00:00
Search period end: 29 September 2024 00:00
Orbit: 446 x 448 km, 53.2° (Epoch: 19 September)

Date Brightness Start Highest point End Pass type
(mag) Time Alt. Az. Time Alt. Az. Time Alt. Az.
19 Sep 5.5 18:59:20 10° SSE 18:59:55 12° SSE 18:59:55 12° SSE visible
20 Sep 6.3 19:57:15 10° WSW 19:57:57 14° WSW 19:57:57 14° WSW visible
21 Sep 4.0 19:18:31 10° SW 19:21:56 47° NW 19:22:34 42° NNW visible
22 Sep 3.1 18:40:07 10° SW 18:43:39 88° NW 18:47:10 10° NNE visible
25 Sep 5.7 05:05:18 10° N 05:08:07 22° NE 05:10:56 10° ESE visible
25 Sep 6.1 18:24:01 10° W 18:26:13 16° NW 18:28:24 10° NNW visible
26 Sep 6.2 04:28:08 10° NNE 04:30:01 14° NE 04:31:55 10° E visible
27 Sep 4.0 05:25:55 10° WNW 05:29:06 33° SW 05:32:19 10° S visible
28 Sep 3.2 04:49:26 26° NW 04:51:09 58° SW 04:54:38 10° SSE visible
